Weather in Stepanovka

Russia / Orenburg Oblast     52°17′13″N   54°30′20″E
temp.,
°C
wind,
m/s
gust,
m/s
humid.,
%
clouds,
%
prec.,
mm/h
press.,
hPa
HPBL,
m
3 march, wed
wed323:00−5sw91694100 1.8 1009755
02:00−4sw81595100 1.0 1006676
05:00−3sw71396100 2.1 1005608
08:00−3sw61197100 0.8 1002482
11:00−2sw61096100 1.7 1003533
14:00−1sw5897100 0.5 1003523
17:00−1w4698100 1.8 1003383
20:00−3wnw3698100 0.7 1003179
4 march, thu
thu423:00−6wnw4109797 0.9 1005298
02:00−11wnw499762 0.0 1006165
05:00−10wnw4109779 0.1 1008269
08:00−12w4898100 0.1 1009185
11:00−11wsw61096100 0.1 1011295
14:00−8sw7129184 0.0 1010411
17:00−6sw9159179 0.1 1008670
20:00−5sw91794100 0.3 1007880
5 march, fri
fri523:00−2wsw111891100 1.4 1005909
02:00−1wsw101696100 0.8 1006879
05:00−2wsw91494100 1.3 1007828
08:00−3sw91594100 0.2 1007586
11:00−2sw101793100 0.3 1007720
14:00−1sw111894100 0.8 1006971
17:000sw111797100 1.9 1005928
20:00+1wsw111697100 0.7 1005914
6 march, sat
sat623:000wsw91497100 1.9 1008776
02:00−5nw5995100 0.9 1010299
05:00−11nnw239699 0.9 101423
08:00−13ne129399 0.0 101521
11:00−10e228897 0.0 101581
14:00−7se3588100 0.0 1013228
17:00−6e4696100 1.3 1010227
20:00−6ne4796100 3.3 1007252
7 march, sun
sun723:00−7nnw4795100 4.6 1006245
02:00−9nw51096100 0.1 1007282
05:00−11wnw51097100 0.1 1010297
08:00−16wnw3598100 0.0 101289
11:00−15wnw499696 0.0 1014280
14:00−14wnw4794100 0.0 1015355
17:00−14w369399 0.0 1016309
20:00−18sw349625 0.0 101632